User: anonymous   Login
Location: B?jaj?g
(11.7167°N, 92.6667°E)
Time: 21:16:13
(UTC+00:00)
Language:

Cosmos 1862 Rocket - Orbit

View from above orbital plane
View from above orbital plane
View from above satellite
View from above satellite

Ground track
Ground track

The orbit data is extracted from the following two-line orbital elements,

1 18153U 87055B   20336.48784763 +.00000145 +00000-0 +14788-4 0  9996
2 18153 082.5000 358.3355 0020218 239.5644 120.3574 14.83305155784548
Epoch (UTC): 01 December 2020 11:42:30
Eccentricity: 0.0020218
inclination: 82.5000°
perigee height: 605 km
apogee height: 633 km
right ascension of ascending node: 358.3355°
argument of perigee: 239.5644°
revolutions per day: 14.83305155
mean anomaly at epoch: 120.3574°
orbit number at epoch: 78454

The dashed part of the orbit path shows where the satellite is in the earth's shadow,  

DLR